GEFSSE_con_prob3kmehi_072.txt.gz
EHI
0 1 3 4 2 2 3 6 11 16 20 22 20 14 8 4 1 0 0 0 0 0 0 0 0 0 0 0 0 0 0 0 0 0 0 0 0 0 0 0 0 0 0
2 3 4 6 5 4 3 5 7 12 15 16 14 10 5 2 0 0 0 0 0 0 0 0 0 0 0 0 0 0 0 0 0 0 0 0 0 0 0 0 0 0 0
6 6 7 9 11 8 5 3 4 5 7 7 6 4 2 1 0 0 0 0 0 0 0 0 0 0 0 0 0 0 0 0 0 0 0 0 0 0 0 0 0 0 0
11 10 12 17 19 15 9 5 3 3 2 1 1 1 1 0 0 0 0 0 0 0 0 0 0 0 0 0 0 0 0 0 0 0 0 0 0 0 0 0 0 0 0
10 10 18 28 30 24 17 9 4 3 1 0 0 0 0 0 0 0 0 0 0 0 0 0 0 0 0 0 0 0 0 0 0 0 0 0 0 0 0 0 0 0 0
9 12 24 40 43 36 29 18 8 4 2 1 0 0 0 0 0 0 0 0 0 0 0 0 0 0 0 0 0 0 0 0 0 0 0 0 0 0 0 1 1 1 0
17 19 34 52 56 48 40 28 16 8 4 2 1 1 0 0 0 0 0 0 0 0 0 0 0 0 0 0 0 0 0 0 0 0 0 0 0 0 0 1 2 2 1
28 32 43 56 60 56 48 38 27 15 8 4 3 1 0 0 0 0 0 0 0 0 0 0 0 0 0 0 0 0 0 0 0 0 0 0 0 0 0 0 1 2 2
35 41 48 52 56 55 51 45 37 26 13 5 2 1 0 0 0 0 0 0 0 0 0 0 0 0 0 0 0 0 0 0 0 0 0 0 0 0 0 0 0 1 2
35 43 49 51 51 50 47 45 40 30 16 5 1 0 0 0 0 0 0 0 0 0 0 0 0 0 0 0 0 0 0 0 0 0 0 0 0 0 0 0 1 1 1
32 36 43 48 49 47 43 40 36 27 16 6 1 0 0 0 0 0 0 0 0 0 0 0 0 0 0 0 0 0 0 0 0 0 0 0 1 1 0 0 2 2 2
27 28 33 40 43 45 43 38 31 23 16 11 5 3 2 1 0 0 0 0 0 0 0 0 0 0 0 0 0 0 0 0 0 0 0 0 1 2 1 0 1 3 3
24 24 27 33 38 40 40 36 32 27 21 16 10 6 4 2 1 1 2 2 1 0 0 0 0 0 0 1 1 0 0 0 0 0 0 0 1 2 2 1 1 2 3
29 27 27 31 34 36 35 32 31 29 23 18 15 13 8 4 3 4 5 4 1 0 0 0 0 1 1 2 2 1 0 0 0 0 0 0 0 1 1 1 1 1 2
41 38 36 36 34 34 31 26 24 23 19 16 17 16 12 8 6 7 6 3 1 0 0 1 1 1 2 3 2 1 0 0 0 0 0 0 0 0 0 1 1 1 1
51 51 47 42 36 32 29 23 20 20 17 15 14 13 13 11 8 6 3 1 0 0 1 1 1 1 2 1 1 0 0 0 0 0 0 0 0 0 0 0 1 1 1
52 53 49 42 34 29 26 24 21 19 18 16 13 11 11 10 8 5 3 1 0 0 0 0 0 1 2 1 0 0 0 0 0 0 1 1 0 0 0 1 1 1 1
45 45 42 36 28 23 22 21 20 17 16 16 15 13 11 9 6 6 4 2 0 0 0 0 0 1 1 1 0 0 0 0 0 0 0 1 1 0 0 1 2 2 1
36 35 33 29 22 17 16 17 16 13 13 13 14 13 13 10 6 4 3 2 1 1 1 1 1 0 0 0 0 0 0 0 0 0 0 0 0 0 0 0 1 1 0
30 28 26 23 19 14 12 13 14 12 10 10 11 12 12 10 6 4 2 1 2 2 2 2 1 0 0 0 0 0 0 0 0 0 0 0 0 0 0 0 1 1 0
22 21 19 18 14 10 9 10 11 10 8 7 9 10 9 8 6 4 2 1 2 2 2 2 1 0 0 0 0 0 0 0 0 0 0 0 0 0 0 0 1 1 1
12 11 11 10 7 5 4 5 6 6 5 5 6 8 7 7 6 3 1 0 1 1 1 1 0 0 0 0 0 0 0 0 0 0 0 0 0 0 0 0 1 1 0
4 3 4 3 2 1 1 1 2 3 3 3 4 4 5 5 4 2 0 0 0 0 0 0 0 0 0 0 0 0 0 0 0 0 0 0 0 0 0 0 0 0 0
1 0 1 1 0 0 0 0 1 2 2 2 2 3 3 3 2 0 0 0 0 0 0 0 0 0 0 0 0 0 0 0 0 0 0 0 0 0 0 0 0 0 0
0 0 0 0 0 0 0 0 0 1 1 0 1 2 1 1 0 0 0 0 0 0 0 0 0 0 0 0 0 0 1 1 0 0 0 0 0 0 0 0 0 0 0
0 0 0 0 0 0 0 0 0 0 0 0 0 1 0 0 0 0 0 0 0 0 0 0 0 0 0 0 0 1 2 2 1 0 0 0 0 0 0 0 0 0 0

GEFSSE_con_prob3kmehi_078.txt.gz
EHI
8 18 21 13 4 0 0 4 9 12 14 13 10 6 2 0 0 0 0 0 0 0 0 0 0 0 0 0 0 0 0 0 0 0 0 0 0 0 0 0 0 0 0
15 23 23 13 5 2 1 4 9 12 14 15 12 8 3 1 0 0 0 0 0 0 0 0 0 0 0 0 0 0 0 0 0 0 0 0 0 0 0 0 0 0 0
25 30 25 14 8 4 2 4 8 10 12 15 13 9 4 1 0 0 0 0 0 0 0 0 0 0 0 0 0 0 0 0 0 0 0 0 0 0 0 0 0 0 0
30 32 26 16 11 6 4 4 7 8 9 11 12 9 5 2 0 0 0 0 0 0 0 0 0 0 0 0 0 0 0 0 0 0 0 0 0 0 0 0 0 0 0
25 27 27 20 12 8 6 6 7 7 7 8 9 7 4 2 0 0 0 0 0 0 0 0 0 0 0 0 0 0 0 0 0 0 0 0 0 0 0 0 0 0 0
16 21 28 24 14 9 8 8 8 7 7 7 6 4 2 1 0 0 0 0 0 0 0 0 0 0 0 0 0 0 0 0 0 0 0 0 0 0 0 0 0 0 0
8 17 28 25 13 9 8 8 8 8 7 6 5 3 1 0 0 0 0 0 0 0 0 0 0 0 0 0 0 0 0 0 0 0 0 0 0 0 0 0 0 0 0
5 14 26 24 12 7 7 6 6 6 6 5 3 1 0 0 0 0 0 0 0 0 0 0 0 0 0 0 0 0 0 0 0 0 0 0 0 0 0 0 0 0 0
3 11 21 20 11 7 5 4 3 4 3 3 1 0 0 0 0 0 0 0 0 0 0 0 0 0 0 0 0 0 0 0 0 0 0 2 4 3 0 0 0 0 0
5 9 16 17 12 7 4 3 2 2 1 1 0 0 0 0 0 0 0 0 0 0 0 0 0 0 0 0 0 0 0 0 0 0 0 5 9 5 0 0 0 0 0
20 17 15 16 13 8 5 5 3 2 2 2 1 1 1 0 0 0 1 1 1 0 0 0 0 0 0 0 0 0 0 0 0 0 4 11 12 5 0 0 0 0 0
42 35 25 21 17 12 11 10 8 8 9 8 7 7 5 3 2 1 1 3 2 0 0 0 0 0 0 0 0 0 0 0 0 0 9 20 16 5 1 1 1 0 0
56 49 39 33 30 25 21 19 17 18 19 17 15 16 16 14 12 9 6 4 3 2 2 2 2 1 0 0 1 0 0 1 1 2 14 25 18 5 1 2 1 0 0
60 55 50 50 49 42 36 31 27 26 25 24 24 25 27 31 30 25 21 15 10 7 6 8 8 3 0 0 0 0 0 1 2 4 15 22 15 3 1 1 1 0 0
55 54 56 60 61 58 51 44 36 31 29 30 33 34 34 38 40 39 37 31 21 15 14 14 13 6 2 1 1 0 0 1 2 3 10 14 9 2 0 0 0 0 0
49 51 56 61 64 64 60 53 44 37 33 34 38 39 37 37 39 43 44 38 29 24 21 18 14 9 5 3 1 0 1 2 3 2 3 5 4 2 1 0 0 1 1
54 55 58 58 58 59 58 52 45 39 35 35 37 37 36 35 35 39 41 36 31 29 28 23 16 11 7 3 2 1 1 3 3 1 0 2 3 2 1 1 1 2 2
61 64 64 57 53 52 50 44 38 34 32 32 31 30 31 32 33 36 36 34 33 32 30 25 20 14 9 6 3 1 2 3 2 0 0 1 3 2 3 4 4 4 4
60 64 63 56 49 43 38 34 29 26 26 27 25 23 23 26 29 31 30 28 29 30 28 24 21 18 14 9 4 1 1 2 2 1 0 0 1 2 3 5 5 5 6
50 53 52 47 40 31 24 22 21 19 20 20 18 16 15 17 20 22 22 20 20 23 25 23 20 19 15 10 4 1 1 2 2 2 1 0 0 1 2 3 5 7 9
37 37 35 30 25 19 14 13 14 14 14 13 12 10 10 10 11 13 14 13 14 16 18 20 19 15 13 10 5 2 1 1 1 1 1 0 0 0 0 2 5 10 14
21 21 19 16 13 10 7 7 10 11 10 9 8 7 8 7 7 7 9 10 11 12 14 17 17 13 10 9 6 4 2 1 1 1 0 0 0 0 0 2 5 9 12
10 9 8 8 7 5 3 4 6 7 6 5 5 5 5 4 4 4 6 8 10 13 14 16 16 14 11 9 7 6 3 2 2 2 1 0 0 0 0 1 3 5 5
5 4 4 4 4 3 2 3 3 3 2 2 2 3 2 1 1 2 4 6 9 11 15 15 14 16 15 10 7 6 4 2 2 2 1 1 1 1 1 2 2 2 1
2 2 3 3 3 2 2 2 2 1 0 0 1 2 1 1 1 1 2 3 4 7 11 12 13 16 15 10 8 8 7 4 2 1 1 2 2 2 2 1 1 1 0
1 2 3 3 2 1 2 2 2 1 0 0 0 1 1 1 1 1 1 1 1 3 5 7 10 14 13 10 9 11 11 7 2 1 1 2 3 3 2 1 1 0 0

GEFSSE_con_prob3kmehi_084.txt.gz
EHI
57 62 71 63 36 17 9 5 2 1 0 0 0 0 0 0 0 0 0 0 0 0 0 0 0 0 0 0 0 0 0 0 0 0 0 0 0 0 0 0 0 0 0
67 66 70 63 39 18 10 6 3 2 1 0 0 0 0 0 0 0 0 0 0 0 0 0 0 0 0 0 0 0 0 0 0 0 0 0 0 0 0 0 0 0 0
71 62 62 62 43 22 12 7 4 3 2 1 0 0 0 0 0 0 0 0 0 0 0 0 0 0 0 0 0 0 0 0 0 0 0 0 0 0 0 0 0 0 0
58 48 51 59 47 29 17 10 4 2 2 1 0 0 0 0 0 0 0 0 0 0 0 0 0 0 0 0 0 0 0 0 0 0 0 0 0 0 0 0 0 0 0
42 38 49 59 51 35 22 13 6 2 1 0 0 0 0 0 0 0 0 0 0 0 0 0 0 0 0 0 0 0 0 0 0 0 0 0 0 0 0 0 0 0 0
37 38 50 61 55 40 26 14 8 4 2 1 0 0 0 0 0 0 0 0 0 0 0 0 0 0 0 0 0 0 0 0 0 0 2 4 4 1 0 0 0 0 0
43 45 53 63 59 43 27 15 9 6 4 3 2 2 1 1 0 0 0 0 1 1 1 0 0 0 0 0 0 0 0 0 0 0 7 16 16 8 3 0 0 0 0
57 55 56 62 58 43 28 16 11 8 6 5 5 4 3 2 1 1 1 1 1 3 3 1 1 1 1 0 0 0 0 0 0 0 11 31 37 26 13 4 1 0 0
71 65 56 53 50 38 26 18 14 10 8 7 6 5 4 4 4 4 3 3 4 4 4 3 3 4 3 2 2 1 1 0 0 0 10 36 57 52 32 13 3 0 0
76 69 57 50 44 32 23 19 16 11 9 8 7 6 5 5 6 6 7 9 11 10 8 8 8 7 6 5 4 3 2 1 0 0 8 36 67 72 51 26 9 2 1
74 69 63 57 46 29 23 24 19 11 8 7 8 8 7 7 7 8 15 24 28 24 19 17 16 13 10 8 7 5 3 1 0 0 10 41 73 80 66 43 22 9 4
73 70 69 66 52 31 30 37 26 15 16 14 14 17 15 10 8 13 30 49 52 44 34 30 27 20 13 9 11 13 6 0 0 1 17 52 77 81 74 58 36 18 10
76 70 71 74 62 43 45 51 36 27 36 33 28 32 31 24 20 27 49 69 70 59 44 38 36 26 14 10 19 23 11 1 1 4 24 57 76 78 74 62 44 26 17
74 69 72 81 78 65 64 64 49 42 51 53 50 52 53 49 45 52 68 78 77 67 52 44 43 36 23 19 24 25 15 5 2 8 28 54 68 70 67 57 42 27 18
71 70 78 88 87 81 79 76 65 58 61 67 72 73 73 71 69 72 80 81 77 71 62 54 50 46 40 34 29 24 18 10 6 11 29 47 57 60 59 50 36 21 13
71 74 84 91 90 87 86 84 78 72 71 75 81 83 81 77 75 77 80 79 75 70 66 62 56 52 46 41 34 25 18 15 12 16 27 41 49 49 47 42 30 17 9
80 84 91 92 90 89 89 88 84 78 75 78 81 80 76 73 75 75 73 71 68 63 60 58 55 50 43 36 30 22 19 19 19 20 25 34 39 36 34 31 24 14 8
93 95 95 91 89 88 89 88 83 76 74 77 77 73 68 67 68 67 65 63 59 54 49 46 44 42 37 31 24 19 19 20 20 20 20 24 27 28 26 21 17 12 7
92 93 91 88 85 83 83 80 74 70 69 70 68 63 58 55 53 53 52 50 46 41 35 30 29 29 27 24 19 16 16 16 16 16 14 16 22 27 25 18 12 9 6
73 75 79 80 78 76 75 70 65 63 61 58 54 50 45 40 38 37 35 33 29 26 22 17 17 18 17 16 13 11 10 11 15 16 13 13 19 23 21 18 16 11 7
47 52 59 64 64 65 65 62 57 55 51 45 41 37 31 26 25 24 22 19 18 17 15 12 12 12 10 10 9 7 7 8 14 17 15 13 14 15 14 18 24 21 14
30 35 42 46 48 51 52 51 48 45 40 36 34 32 24 15 11 11 12 13 14 15 12 10 11 9 7 7 7 6 5 6 9 12 13 12 11 12 13 17 26 28 22
20 24 29 33 34 36 37 36 35 32 29 29 32 31 23 11 5 4 6 8 10 12 12 10 9 8 5 5 5 5 5 6 7 9 10 9 9 11 12 13 21 26 24
12 14 18 22 24 26 27 27 26 23 21 22 25 26 20 11 4 2 3 4 6 9 10 10 9 7 5 3 2 3 6 7 7 6 6 6 7 9 9 8 14 21 22
6 7 10 16 22 25 24 23 22 19 15 14 18 19 16 10 5 3 3 4 5 6 8 10 9 8 6 4 3 4 6 6 5 3 3 4 5 6 7 7 11 16 18
5 4 9 19 26 27 25 21 19 17 13 11 14 17 16 10 6 3 2 4 5 5 7 10 10 8 8 7 7 8 8 7 4 2 2 3 3 4 7 9 12 14 15

GEFSSE_con_prob3kmehi_090.txt.gz
EHI
21 48 79 93 91 72 45 24 14 8 3 1 0 1 2 2 1 2 2 2 2 1 0 0 0 0 0 0 0 1 2 3 4 5 4 2 1 0 0 0 0 0 0
35 53 79 94 94 78 52 30 16 7 2 0 0 0 1 1 0 1 1 1 1 0 0 0 0 0 0 0 0 0 1 1 2 2 2 1 0 0 0 0 0 0 0
57 61 76 93 98 87 64 39 22 10 3 0 0 0 0 0 0 0 0 0 0 0 0 0 0 0 0 0 0 0 0 0 0 0 0 0 0 0 0 0 0 0 0
70 65 72 91 100 93 75 53 33 19 8 2 0 0 0 0 0 0 0 0 0 0 0 0 0 0 0 0 0 0 0 0 0 0 0 0 0 0 0 0 0 0 0
69 64 72 91 100 96 84 66 50 33 18 7 2 0 0 0 0 0 0 0 0 0 0 0 0 0 0 0 0 0 0 0 0 0 0 0 0 1 2 1 1 0 0
61 60 73 92 99 97 89 77 64 49 31 16 6 1 0 0 0 0 0 0 0 0 0 0 0 0 0 0 0 0 0 0 0 0 0 0 1 4 6 5 2 1 0
65 64 73 90 98 97 93 85 73 61 46 29 14 5 2 1 0 0 0 0 0 0 0 0 0 0 0 0 0 0 0 0 0 0 0 0 2 7 12 9 4 1 0
75 72 75 85 93 94 93 87 78 68 56 43 27 13 6 4 2 1 1 1 0 0 0 0 0 0 0 0 0 0 0 0 0 0 0 0 3 11 16 13 8 4 2
70 71 73 77 81 84 85 83 77 69 60 51 38 23 13 8 7 6 5 3 2 1 1 0 0 0 0 0 0 0 0 0 0 0 0 0 3 11 17 19 14 8 4
54 56 62 67 68 69 71 74 73 66 58 51 41 29 18 12 11 12 11 7 5 5 3 1 0 0 1 1 0 0 0 0 0 0 0 0 2 10 20 25 20 12 7
41 42 50 58 58 56 56 59 60 56 48 40 32 27 20 12 10 11 11 9 9 9 8 5 4 4 3 2 1 0 0 0 0 0 0 0 3 14 27 32 27 18 14
39 37 39 46 48 45 44 44 43 39 30 22 18 18 16 9 6 7 7 8 10 11 10 11 12 10 7 4 2 1 0 0 0 0 0 0 6 19 34 41 36 26 22
45 39 33 32 32 31 30 34 34 26 17 11 9 9 10 8 6 6 5 6 10 15 17 19 21 19 14 8 4 2 0 0 0 0 0 1 7 22 40 46 42 33 27
55 46 36 29 24 20 23 31 34 24 15 10 7 6 8 9 7 6 4 5 12 24 30 31 30 26 21 14 7 2 1 0 0 0 0 2 6 23 41 45 39 34 29
61 55 46 38 31 26 30 39 41 31 22 18 15 13 14 14 11 8 5 5 14 30 40 39 33 27 23 15 6 2 1 0 0 0 0 2 6 19 34 38 34 29 26
60 58 53 48 46 47 49 52 50 41 35 35 31 26 26 24 19 14 11 10 16 27 36 36 28 22 18 11 4 1 1 0 0 0 0 2 6 13 22 29 27 22 19
57 55 54 54 59 63 61 57 52 46 44 44 38 33 33 33 28 22 16 14 17 21 25 25 21 16 12 8 4 3 2 1 2 1 0 2 5 8 13 19 20 17 15
52 52 53 57 63 65 60 53 46 42 39 36 32 31 33 34 30 22 16 13 15 17 17 15 12 10 8 7 6 6 4 3 3 2 0 1 4 6 8 11 14 14 15
40 43 48 52 55 54 49 43 36 29 25 22 21 23 25 26 23 18 14 11 12 14 12 8 6 5 5 4 5 6 6 4 3 2 1 1 3 5 6 7 9 10 10
26 30 35 38 38 34 30 27 23 17 14 13 12 12 12 13 14 12 10 9 8 8 7 4 3 2 3 3 3 3 3 3 3 3 2 2 3 4 4 4 5 5 4
18 19 21 21 19 17 13 12 11 9 8 8 7 5 5 6 7 7 6 5 4 3 2 1 1 1 2 2 1 0 1 1 2 3 3 2 3 4 3 3 3 2 1
11 12 12 11 10 8 6 5 4 4 4 5 4 4 4 4 4 4 3 2 1 0 0 0 0 0 0 1 0 0 0 0 1 2 2 1 2 2 2 1 2 1 0
5 5 5 6 5 5 4 3 2 1 2 3 3 3 3 3 3 2 2 1 0 0 0 0 0 0 0 0 0 0 0 0 0 1 1 0 1 1 1 0 1 1 0
2 2 2 2 2 2 2 1 0 0 1 1 2 1 1 1 1 1 1 0 0 0 0 0 0 0 0 0 0 0 0 0 0 0 0 0 0 0 0 0 1 1 1
2 1 1 1 0 0 0 0 0 0 0 0 0 0 0 0 0 0 0 0 0 0 0 0 0 0 0 0 0 0 0 0 0 0 0 0 0 0 0 0 1 2 3
3 2 2 2 1 0 0 0 0 0 0 0 0 0 0 0 0 0 0 0 0 0 0 0 0 0 0 0 0 0 0 0 0 0 0 0 0 0 0 0 1 2 3